791  
NZUS99 KSGF 201107  
HRRSGF  
 
HOURLY WEATHER  
NATIONAL WEATHER SERVICE SPRINGFIELD MO  
500 AM CST SUN JAN 20 2019  
   
.....SGF CWA...
 
 
 
CITY SKY/WX TMP DP RH WIND PRES REMARKS  
SPRINGFIELD CLOUDY 13 9 84 N7 30.27F WCI 3  
JOPLIN CLOUDY 13 9 84 CALM 30.33S  
WEST PLAINS CLOUDY 14 9 80 N9 30.25R WCI 2  
ROLLA CLOUDY 11 5 77 N9 30.27R WCI -2  
OSAGE BEACH CLOUDY 10 6 84 N5 30.33R WCI 2  
BRANSON CLOUDY 14 10 85 NW5 30.29R WCI 6  
   
.....SURROUNDING SGF CWA...
 
 
 
CITY SKY/WX TMP DP RH WIND PRES REMARKS  
CHANUTE CLOUDY 14 10 84 CALM 30.33S  
PARSONS CLOUDY 14 11 87 CALM 30.34F  
COFFEYVILLE CLOUDY 16 12 84 CALM 30.35F  
EMPORIA CLOUDY 10 9 95 SE5 30.29S WCI 2  
GROVE OK CLOUDY 18 14 86 CALM 30.35S  
ROGERS AR PTCLDY 12 10 92 CALM 30.30S  
SILOAM SPRINGS CLOUDY 15 12 88 CALM 30.33R  
HARRISON AR CLOUDY 14 11 87 NW7 30.27R WCI 4  
NEAR YELLVILLE CLEAR 17 13 84 NW9 30.32R WCI 6  
   
.....KANSAS AND MISSOURI...
 
 
 
CITY SKY/WX TMP DP RH WIND PRES REMARKS  
KANSAS CTY INT CLOUDY 8 4 83 NE7 30.32F WCI -3  
DOWNTOWN KC CLOUDY 11 2 67 E7 30.36S WCI 0  
COLUMBIA PTCLDY 9 2 73 NW12 30.32R WCI -6  
SEDALIA PTCLDY 9 4 80 N7 30.34S WCI -2  
ST JOSEPH PTCLDY 9 1 70 E5 30.35F WCI 1  
ST LOUIS CLOUDY 13 6 74 NW13 30.30R WCI -2  
SPIRIT OF STL CLOUDY 12 5 73 NW9 30.30S WCI 0  
KIRKSVILLE CLOUDY 2 -1 88 N7 30.32R WCI -11  
WICHITA CLOUDY 17 14 88 S8 30.25F WCI 7  
TOPEKA CLOUDY 8 4 83 CALM 30.34S  
OLATHE CLOUDY 9 3 77 N5 30.32S WCI 1  
   
.....TENNESSEE...
 
 
 
CITY SKY/WX TMP DP RH WIND PRES REMARKS  
MEMPHIS CLOUDY 27 20 75 N12G20 30.21R WCI 17  
NASHVILLE CLOUDY 28 17 63 N23G35 30.07R WCI 14  
   
.....ARKANSAS....
 
 
 
CITY SKY/WX TMP DP RH WIND PRES REMARKS  
FAYETTEVILLE CLOUDY 13 10 88 CALM 30.31R  
FT SMITH CLOUDY 22 14 71 W7 30.35S WCI 13  
LITTLE ROCK PTCLDY 25 17 72 NW9 30.30R WCI 15  
   
.....OKLAHOMA....
 
 
 
CITY SKY/WX TMP DP RH WIND PRES REMARKS  
TULSA CLOUDY 18 13 80 CALM 30.36S  
PONCA CITY CLOUDY 16 12 84 CALM 30.31F  
MCALESTER CLOUDY 21 16 81 N6 30.35S WCI 13  
OKLAHOMA CITY CLOUDY 17 14 88 W3 30.32R  
   
.....IOWA.........
 
 
 
CITY SKY/WX TMP DP RH WIND PRES REMARKS  
DES MOINES CLOUDY 4 -4 69 N5 30.33S WCI -5  
QUAD CITIES MOCLDY 7 -1 70 NW9 30.30R WCI -7  
   
.....ILLINOIS.....
 
 
 
CITY SKY/WX TMP DP RH WIND PRES REMARKS  
QUINCY PTCLDY 2 -4 76 NW9 30.30R WCI -13  
CHICAGO FAIR 8 -1 66 NW14 30.18R WCI -8  
 
 
 
CLICK HERE TO GO TO PREVIOUS BULLETINS.

The Nexlab MO Page
The Nexlab KS Page Main Text Page